Terug naar catalogus

GLOBALSTAR M019

ActiefCommunicatieLEO
NORAD 25677·PAYLOAD·🇺🇸 United States

Gelanceerd Apr 15, 1999 vanaf Baikonur Cosmodrome

Loading…

Volgende Passages (komende 24 uur)

TLE

VersSource: Space-Track

Epoch: Sep 14, 2026, 09:41 UTC

1 25677U 99019B   26257.40395432  .00000028  00000-0  12317-2 0  9993
2 25677  51.9857 252.9690 0001416 139.4620   9.0874 12.13888641240303

Volg GLOBALSTAR M019 in realtime met AllMySat

Download on the App Store